Starlink 4264

operational
NORAD ID: 52993 Int'l Des: 2022-076 Owner: SPXS Country: US Constellation: starlink
LEOCIRCULAR

Starlink 4264について

説明を読み込み中...

リアルタイム位置

3D地球を読み込み中...

次回通過

高度履歴

Altitude vs Time

uPlot chart will show altitude changes over time

軌道要素

1 52993U 22076H 25353.00002315 .01068343 00000-0 57054-1 0 9991
2 52993 53.2173 96.3155 0001134 67.1790 182.1399 15.11896124 5803
Epoch: Dec 19, 2025 • Age: 6 hours

現在のステータス

高度 539.3 km
速度 7.59 km/s
衛星直下点 -31.70°S, 121.09°E
打ち上げ日 Jul 7, 2022
運用期間 3.4 years
タイプ internet

技術仕様

分類 Payload
質量 297.00 kg
乾燥質量 275.00 kg
総質量 297.00 kg
長さ 0.20 m
直径 2.80 m
スパン 9.00 m
形状 Box + pan
製造者 SPXS
バスタイプ Starlink
フェーズステータス In Orbit
所有者/国 SPXS/US

大規模コンステレーション

Loading constellations...